Regional Weather Roundup
Issued by NWS Albany, NY

Home | Current Version | Previous Version | Graphics & Text | Print | Product List | Glossary Off
Versions: 1 2 3 4 5 6 7 8 9 10 11 12 13 14 15 16 17 18 19 20 21 22 23 24 25 26 27

000
ASUS41 KALY 290510
RWRALY

NEW YORK STATE HOURLY WEATHER ROUNDUP
NATIONAL WEATHER SERVICE ALBANY NY
100 AM EDT THU JUN 29 2017

NOTE: "FAIR" INDICATES FEW OR NO CLOUDS BELOW 12,000 FEET WITH NO
SIGNIFICANT WEATHER AND/OR NO OBSTRUCTIONS TO VISIBILITY.

NYZ032-033-038>043-046>054-057>066-NYZ062>081-082-084-290600-
EAST


CITY           SKY/WX    TMP DP  RH WIND       PRES   REMARKS
ALBANY         MOCLDY    60  53  77 CALM      30.08R
GLENS FALLS    MOCLDY    53  51  93 CALM      30.07R
POUGHKEEPSIE   CLOUDY    58  53  84 CALM      30.09S
NEWBURGH       CLEAR     64  54  68 SW7       30.12S
MONTGOMERY     PTCLDY    60  54  80 S6        30.11R
WHITE PLAINS   PTCLDY    68  50  52 W3        30.12S
ISLIP          PTCLDY    65  62  90 SW6       30.12S
NEW YORK CITY  PTCLDY    73  53  49 SW12      30.12R
CENTRAL PARK   MOCLDY    72  51  47 SW8       30.15S
$$

NYZ005>009-017-018-044>046-055-056-290600-
CENTRAL


CITY           SKY/WX    TMP DP  RH WIND       PRES   REMARKS
FULTON         MOCLDY    60  56  86 CALM      30.05S
SYRACUSE       MOCLDY    62  57  83 CALM      30.05R
ROME           CLOUDY    59  56  89 E5        30.07R
ELMIRA         PTCLDY    58  56  93 CALM      30.09R
BINGHAMTON     CLOUDY    62  49  62 SW8       30.11R
MONTICELLO     PTCLDY    57  52  82 CALM      30.15R
$$

NYZ026>034-041>043-087-290600-
NORTH


CITY           SKY/WX    TMP DP  RH WIND       PRES   REMARKS
WATERTOWN      PTCLDY    61  51  70 SW3       30.03R
FORT DRUM      NOT AVBL
OGDENSBURG     FAIR      56  54  93 CALM      30.01S
MASSENA        CLOUDY    55  52  89 SW5       30.01R
SARANAC LAKE   CLOUDY    45  45 100 CALM      30.06S
PLATTSBURGH    PTCLDY    56  51  84 CALM      30.01S
$$

NYZ001>004-010>016-019>021-085-290600-
WEST


CITY           SKY/WX    TMP DP  RH WIND       PRES   REMARKS
NIAGARA FALLS  LGT RAIN  67  53  61 S6        30.03R
BUFFALO        LGT RAIN  64  54  69 S7        30.04R
DUNKIRK        CLOUDY    66  54  65 S9        30.04S
JAMESTOWN      CLOUDY    61  48  63 S8        30.09R
WELLSVILLE     CLOUDY    63  48  58 SW6       30.13R
ROCHESTER      CLOUDY    64  54  69 CALM      30.05R
PENN YAN       CLOUDY    63  51  65 S6        30.09R
$$

             KEY
       WCI = WIND CHILL INDEX
       VSB = VISIBILITY
       HX  = HEAT INDEX
$$




USA.gov is the U.S. government's official web portal to all federal, state and local government web resources and services.